FW1369 Weather Reports


Display with metric or nautical units.
time (UTC)temp
F
wind
direction
speed
MPH
gust
MPH
rain 1hr
in
rain 24hr
in
rain mn
in
humidity
%
barometer
mb
20181022051521 38 290 1.0 3.0 0.00 0.00 0.00 73 1020.7
20181022050012 38 319 0.0 2.0 0.00 0.00 0.00 72 1020.6
20181022044509 38 265 0.0 8.0 0.00 0.00 0.00 74 1020.7
20181022043014 38 213 1.0 3.0 0.00 0.00 0.00 73 1020.6
20181022041506 38 105 0.0 2.0 0.00 0.00 0.00 73 1020.7
20181022040159 38 164 0.0 3.0 0.00 0.00 0.00 73 1020.7
20181022034716 38 259 0.0 4.0 0.00 0.00 0.00 74 1020.8
20181022033150 38 301 0.0 5.0 0.00 0.00 0.00 74 1020.7
20181022031720 38 279 0.0 3.0 0.00 0.00 0.00 74 1020.6
20181022030220 39 266 0.0 3.0 0.00 0.00 0.00 74 1020.5
20181022024712 39 247 0.0 7.0 0.00 0.00 0.00 73 1020.6
20181022023203 39 273 0.0 9.0 0.00 0.00 0.00 73 1020.6
20181022021639 38 271 1.0 6.0 0.00 0.00 0.00 72 1020.4
20181022020151 38 277 0.0 3.0 0.00 0.00 0.00 72 1020.3
20181022014611 38 260 0.0 3.0 0.00 0.00 0.00 72 1020.0
20181022013058 38 273 0.0 3.0 0.00 0.00 0.00 72 1019.9
20181022011637 38 254 0.0 3.0 0.00 0.00 0.00 72 1019.8
20181022010122 38 281 0.0 3.0 0.00 0.00 0.00 72 1019.9
20181022004633 38 333 0.0 3.0 0.00 0.00 0.00 72 1019.8
20181022003213 38 208 0.0 4.0 0.00 0.00 0.00 72 1019.9
20181021234641 37 235 0.0 2.0 0.00 0.00 0.00 71 1019.7
20181021233058 37 240 0.0 1.0 0.00 0.00 0.00 70 1019.8
20181021231609 38 240 0.0 3.0 0.00 0.00 0.00 69 1019.9
20181021230141 38 228 0.0 1.0 0.00 0.00 0.00 68 1019.7
20181021224720 38 282 0.0 3.0 0.00 0.00 0.00 65 1019.8
20181021223138 38 121 0.0 3.0 0.00 0.00 0.00 65 1019.8
20181021221619 38 300 0.0 2.0 0.00 0.00 0.00 66 1019.9
20181021220056 39 291 0.0 3.0 0.00 0.00 0.00 65 1019.8
20181021214600 39 222 0.0 2.0 0.00 0.00 0.00 63 1019.6
20181021213106 39 313 1.0 3.0 0.00 0.00 0.00 60 1019.7
20181021211616 39 140 1.0 5.0 0.00 0.00 0.00 62 1019.6
20181021210115 39 130 1.0 3.0 0.00 0.00 0.00 62 1019.5
20181021204614 39 297 1.0 10.0 0.00 0.01 0.00 63 1019.4
20181021203105 40 297 1.0 4.0 0.00 0.01 0.00 61 1019.3
20181021201615 40 27 1.0 5.0 0.00 0.01 0.00 63 1019.2
20181021200049 40 319 1.0 3.0 0.00 0.01 0.00 64 1019.1
20181021194617 40 30 1.0 4.0 0.00 0.01 0.00 62 1019.1
20181021193118 40 351 1.0 4.0 0.00 0.01 0.00 61 1019.1
20181021191610 40 350 1.0 4.0 0.00 0.01 0.00 61 1019.2
20181021190201 40 351 1.0 4.0 0.00 0.01 0.00 65 1019.2
20181021184628 40 331 1.0 4.0 0.00 0.01 0.00 60 1019.2
20181021183134 40 340 1.0 4.0 0.00 0.01 0.00 61 1019.4
20181021181641 39 347 1.0 5.0 0.00 0.01 0.00 62 1019.5
20181021180115 39 360 1.0 13.0 0.00 0.01 0.00 63 1019.5
20181021174618 40 355 2.0 7.0 0.00 0.01 0.00 60 1019.4
20181021173107 39 313 1.0 5.0 0.00 0.01 0.00 60 1019.5
20181021171617 40 97 1.0 6.0 0.00 0.01 0.00 60 1019.5
20181021164543 38 312 2.0 9.0 0.00 0.01 0.00 60 1019.7
20181021163104 38 348 2.0 9.0 0.00 0.01 0.00 61 1019.7
20181021161559 38 298 1.0 8.0 0.00 0.01 0.00 61 1019.9
20181021160035 38 334 2.0 6.0 0.00 0.01 0.00 61 1019.9
20181021154547 37 317 2.0 6.0 0.00 0.01 0.00 60 1019.7
20181021153041 37 294 1.0 4.0 0.00 0.01 0.00 64 1019.7
20181021151553 36 17 1.0 5.0 0.00 0.01 0.00 64 1019.6
20181021150045 36 44 1.0 5.0 0.00 0.01 0.00 65 1019.6
20181021144537 35 317 1.0 4.0 0.00 0.01 0.00 63 1019.6
20181021143055 35 312 0.0 5.0 0.00 0.01 0.00 65 1019.6
20181021141540 35 326 1.0 3.0 0.00 0.01 0.00 67 1019.3
20181021140046 35 309 1.0 4.0 0.00 0.01 0.00 64 1019.2
20181021134542 35 9 0.0 3.0 0.00 0.01 0.00 68 1019.1
20181021133108 35 43 1.0 5.0 0.00 0.01 0.00 68 1019.0
20181021131527 35 308 2.0 5.0 0.00 0.01 0.00 69 1018.7
20181021130016 35 324 1.0 4.0 0.00 0.01 0.00 70 1018.3
20181021124530 35 333 1.0 5.0 0.00 0.01 0.00 71 1018.0
20181021123012 34 317 2.0 9.0 0.00 0.01 0.00 73 1017.5
20181021121515 35 305 1.0 5.0 0.00 0.01 0.00 69 1017.4
20181021120004 35 294 0.0 6.0 0.00 0.01 0.00 68 1016.9
20181021114633 35 35 1.0 9.0 0.00 0.01 0.00 69 1016.6
20181021113215 35 75 1.0 4.0 0.00 0.01 0.00 70 1016.2
20181021111638 35 346 1.0 4.0 0.00 0.01 0.00 70 1015.9
20181021110053 35 333 0.0 5.0 0.00 0.01 0.00 70 1015.6
20181021104631 36 22 2.0 5.0 0.00 0.05 0.00 70 1015.3
20181021103125 36 278 0.0 4.0 0.00 0.05 0.00 71 1014.8
20181021101658 36 312 1.0 4.0 0.00 0.05 0.00 71 1014.6
20181021100150 36 341 2.0 5.0 0.00 0.05 0.00 70 1014.1
20181021094622 37 28 2.0 13.0 0.00 0.05 0.00 69 1013.8
20181021093106 37 329 1.0 4.0 0.00 0.05 0.00 71 1013.5
20181021091558 38 9 0.0 3.0 0.00 0.05 0.00 70 1013.2
20181021090044 38 332 2.0 13.0 0.00 0.05 0.00 68 1012.8
20181021084553 38 319 1.0 5.0 0.00 0.05 0.00 68 1012.4
20181021083100 38 338 1.0 4.0 0.00 0.05 0.00 68 1012.2
20181021081529 39 335 2.0 8.0 0.00 0.05 0.00 69 1011.8
20181021080019 39 342 3.0 11.0 0.00 0.05 0.00 70 1011.4
20181021074524 39 318 1.0 9.0 0.00 0.05 0.00 70 1011.0
20181021073015 40 324 2.0 8.0 0.00 0.05 0.00 69 1010.8
20181021071531 40 317 2.0 5.0 0.00 0.05 0.00 70 1010.6
20181021070051 40 334 2.0 11.0 0.00 0.05 0.00 69 1010.3
20181021064510 40 344 1.0 13.0 0.00 0.05 0.00 69 1010.0
20181021063134 41 350 3.0 12.0 0.00 0.05 0.00 71 1009.6
20181021061610 41 347 2.0 7.0 0.00 0.05 0.00 72 1009.2
20181021060439 41 24 1.0 15.0 0.00 0.05 0.00 71 1008.7
20181021054654 42 344 4.0 9.0 0.00 0.05 0.00 71 1008.3
20181021053132 42 20 2.0 6.0 0.00 0.05 0.00 71 1008.1